• In United Kingdom
  • List of Countries
  • For 7 days
  • Water Temperature
  • Satellite Maps
  • Weather Map
  • Weather Widgets
  • user-avatar
    Login

    Hourly Weather Middlesbrough

    Today, 22 January, Monday

    Time Temperature Precipitation Wind Pressure Humidity
    00:00 +2°C° 0 mm 5 mps 749 mmHg 95%
    01:00 +2°C° 0 mm 5 mps 750 mmHg 94%
    02:00 +2°C° 0 mm 5 mps 750 mmHg 93%
    03:00 +2°C° 0 mm 5 mps 750 mmHg 92%
    04:00 +2°C° 0 mm 5 mps 750 mmHg 92%
    05:00 +2°C° 0 mm 5 mps 751 mmHg 92%
    06:00 +2°C° 0 mm 6 mps 751 mmHg 92%
    07:00 +2°C° 0 mm 6 mps 751 mmHg 91%
    08:00 +2°C° 0 mm 6 mps 752 mmHg 91%
    09:00 +2°C° 0 mm 6 mps 752 mmHg 91%
    10:00 +3°C° 0 mm 6 mps 753 mmHg 90%
    11:00 +3°C° 0 mm 7 mps 754 mmHg 90%
    12:00 +4°C° 0 mm 7 mps 754 mmHg 90%
    13:00 +4°C° 0 mm 7 mps 754 mmHg 89%
    14:00 +4°C° 0 mm 7 mps 755 mmHg 88%
    15:00 +4°C° 0 mm 6 mps 755 mmHg 88%
    16:00 +4°C° 0 mm 6 mps 756 mmHg 88%
    17:00 +3°C° 0 mm 6 mps 757 mmHg 88%
    18:00 +3°C° 0 mm 6 mps 757 mmHg 88%
    19:00 +2°C° 0 mm 5 mps 757 mmHg 88%
    20:00 +2°C° 0 mm 5 mps 758 mmHg 89%
    21:00 +2°C° 0 mm 5 mps 758 mmHg 89%
    22:00 +2°C° 0 mm 5 mps 758 mmHg 89%
    23:00 +2°C° 0 mm 5 mps 758 mmHg 90%

    Tomorrow, 23 January, Tuesday

    Time Temperature Precipitation Wind Pressure Humidity
    00:00 +3°C° 0 mm 5 mps 758 mmHg 90%
    01:00 +3°C° 0 mm 5 mps 758 mmHg 91%
    02:00 +3°C° 0 mm 5 mps 757 mmHg 91%
    03:00 +3°C° 0 mm 5 mps 757 mmHg 91%
    04:00 +3°C° 0 mm 6 mps 756 mmHg 91%
    05:00 +4°C° 0 mm 6 mps 755 mmHg 91%
    06:00 +4°C° 0 mm 7 mps 755 mmHg 91%
    07:00 +5°C° 0.1 mm 7 mps 754 mmHg 91%
    08:00 +6°C° 0.1 mm 8 mps 753 mmHg 91%
    09:00 +6°C° 0.1 mm 9 mps 752 mmHg 91%
    10:00 +7°C° 0.1 mm 9 mps 752 mmHg 89%
    11:00 +8°C° 0.1 mm 9 mps 752 mmHg 86%
    12:00 +10°C° 0.1 mm 9 mps 751 mmHg 84%
    13:00 +10°C° 0.1 mm 9 mps 751 mmHg 83%
    14:00 +10°C° 0.1 mm 9 mps 751 mmHg 83%
    15:00 +10°C° 0.1 mm 9 mps 751 mmHg 83%
    16:00 +10°C° 0 mm 9 mps 751 mmHg 83%
    17:00 +9°C° 0 mm 8 mps 751 mmHg 83%
    18:00 +9°C° 0 mm 8 mps 751 mmHg 83%
    19:00 +7°C° 0 mm 8 mps 752 mmHg 82%
    20:00 +6°C° 0 mm 7 mps 752 mmHg 82%
    21:00 +6°C° 0 mm 7 mps 753 mmHg 82%
    22:00 +6°C° 0 mm 7 mps 752 mmHg 83%
    23:00 +6°C° 0 mm 7 mps 752 mmHg 84%

    Day after tomorrow, 24 January, Wednesday

    Time Temperature Precipitation Wind Pressure Humidity
    00:00 +6°C° 0 mm 7 mps 751 mmHg 85%
    01:00 +7°C° 0.2 mm 9 mps 750 mmHg 84%
    02:00 +7°C° 0.2 mm 10 mps 749 mmHg 83%
    03:00 +8°C° 0.2 mm 11 mps 747 mmHg 82%
    04:00 +8°C° 0.5 mm 11 mps 746 mmHg 82%
    05:00 +9°C° 0.5 mm 12 mps 745 mmHg 81%
    06:00 +9°C° 0.5 mm 12 mps 744 mmHg 80%
    07:00 +8°C° 1.2 mm 12 mps 744 mmHg 78%
    08:00 +7°C° 1.2 mm 11 mps 744 mmHg 77%
    09:00 +6°C° 1.2 mm 10 mps 745 mmHg 75%
    10:00 +6°C° 0 mm 9 mps 745 mmHg 73%
    11:00 +6°C° 0 mm 9 mps 745 mmHg 70%
    12:00 +6°C° 0 mm 8 mps 745 mmHg 68%
    13:00 +6°C° 0 mm 8 mps 745 mmHg 68%
    14:00 +6°C° 0 mm 8 mps 745 mmHg 69%
    15:00 +6°C° 0 mm 8 mps 745 mmHg 70%
    16:00 +5°C° 0 mm 8 mps 746 mmHg 72%
    17:00 +4°C° 0 mm 8 mps 746 mmHg 74%
    18:00 +4°C° 0 mm 7 mps 746 mmHg 76%
    19:00 +4°C° 0 mm 7 mps 747 mmHg 76%
    20:00 +2°C° 0 mm 8 mps 747 mmHg 75%
    21:00 +2°C° 0 mm 8 mps 747 mmHg 75%
    22:00 +2°C° 0 mm 8 mps 748 mmHg 75%
    23:00 +2°C° 0 mm 8 mps 748 mmHg 75%

    25 January, Thursday

    Time Temperature Precipitation Wind Pressure Humidity
    00:00 +2°C° 0 mm 8 mps 748 mmHg 75%
    01:00 +2°C° 0 mm 8 mps 748 mmHg 75%
    02:00 +2°C° 0 mm 8 mps 748 mmHg 75%
    03:00 +2°C° 0 mm 8 mps 748 mmHg 75%
    04:00 +2°C° 0 mm 8 mps 748 mmHg 75%
    05:00 +2°C° 0 mm 8 mps 748 mmHg 75%
    06:00 +2°C° 0 mm 8 mps 748 mmHg 75%
    07:00 +2°C° 0 mm 8 mps 748 mmHg 75%
    08:00 +3°C° 0 mm 7 mps 748 mmHg 76%
    09:00 +2°C° 0 mm 7 mps 748 mmHg 77%
    10:00 +2°C° 0 mm 8 mps 748 mmHg 74%
    11:00 +4°C° 0 mm 8 mps 748 mmHg 71%
    12:00 +5°C° 0 mm 8 mps 749 mmHg 68%
    13:00 +5°C° 0 mm 7 mps 748 mmHg 69%
    14:00 +5°C° 0 mm 7 mps 748 mmHg 70%
    15:00 +5°C° 0 mm 6 mps 748 mmHg 70%
    16:00 +4°C° 0 mm 6 mps 748 mmHg 73%
    17:00 +3°C° 0 mm 6 mps 748 mmHg 75%
    18:00 +3°C° 0 mm 6 mps 747 mmHg 78%
    19:00 +3°C° 0 mm 6 mps 748 mmHg 79%
    20:00 +3°C° 0 mm 6 mps 748 mmHg 81%
    21:00 +3°C° 0 mm 6 mps 748 mmHg 82%
    22:00 +3°C° 0.2 mm 5 mps 749 mmHg 84%
    23:00 +3°C° 0.2 mm 5 mps 749 mmHg 86%

    26 January, Friday

    Time Temperature Precipitation Wind Pressure Humidity
    00:00 +3°C° 0.2 mm 4 mps 749 mmHg 88%
    01:00 +3°C° 0.1 mm 4 mps 750 mmHg 89%
    02:00 +2°C° 0.1 mm 5 mps 751 mmHg 90%
    03:00 +2°C° 0.1 mm 5 mps 751 mmHg 91%
    04:00 +2°C° 0 mm 6 mps 753 mmHg 89%
    05:00 +2°C° 0 mm 6 mps 754 mmHg 88%
    06:00 +2°C° 0 mm 7 mps 755 mmHg 86%
    07:00 +3°C° 0 mm 7 mps 756 mmHg 84%
    08:00 +3°C° 0 mm 7 mps 757 mmHg 82%
    09:00 +2°C° 0 mm 8 mps 759 mmHg 80%
    10:00 +3°C° 0 mm 7 mps 759 mmHg 77%
    11:00 +3°C° 0 mm 7 mps 760 mmHg 73%
    12:00 +3°C° 0 mm 7 mps 761 mmHg 70%
    13:00 +3°C° 0 mm 6 mps 762 mmHg 69%
    14:00 +2°C° 0 mm 6 mps 763 mmHg 69%
    15:00 +2°C° 0 mm 5 mps 763 mmHg 68%
    16:00 +1°C° 0 mm 5 mps 764 mmHg 71%
    17:00 0°C° 0 mm 5 mps 764 mmHg 74%
    18:00 0°C° 0 mm 4 mps 765 mmHg 76%
    19:00 -1°C° 0 mm 4 mps 765 mmHg 76%
    20:00 -1°C° 0 mm 4 mps 766 mmHg 76%
    21:00 -1°C° 0 mm 4 mps 766 mmHg 76%
    22:00 0°C° 0 mm 3 mps 767 mmHg 75%
    23:00 0°C° 0 mm 3 mps 767 mmHg 74%

    27 January, Saturday

    Time Temperature Precipitation Wind Pressure Humidity
    00:00 0°C° 0 mm 3 mps 768 mmHg 73%
    01:00 +1°C° 0 mm 2 mps 768 mmHg 73%
    02:00 +1°C° 0 mm 2 mps 768 mmHg 73%
    03:00 +1°C° 0 mm 2 mps 768 mmHg 72%
    04:00 +1°C° 0 mm 2 mps 768 mmHg 74%
    05:00 +1°C° 0 mm 2 mps 768 mmHg 75%
    06:00 +1°C° 0 mm 2 mps 768 mmHg 76%
    07:00 +1°C° 0 mm 3 mps 768 mmHg 75%
    08:00 0°C° 0 mm 4 mps 768 mmHg 74%
    09:00 +1°C° 0 mm 5 mps 768 mmHg 73%
    10:00 +1°C° 0.4 mm 6 mps 767 mmHg 76%
    11:00 +2°C° 0.4 mm 6 mps 767 mmHg 79%
    12:00 +2°C° 0.4 mm 7 mps 766 mmHg 81%
    13:00 +2°C° 0.9 mm 8 mps 765 mmHg 84%
    14:00 +4°C° 0.9 mm 8 mps 765 mmHg 86%
    15:00 +4°C° 0.9 mm 8 mps 764 mmHg 89%
    16:00 +5°C° 0.4 mm 8 mps 764 mmHg 90%
    17:00 +6°C° 0.4 mm 7 mps 764 mmHg 91%
    18:00 +8°C° 0.4 mm 6 mps 763 mmHg 92%
    19:00 +8°C° 0.1 mm 7 mps 764 mmHg 92%
    20:00 +9°C° 0.1 mm 7 mps 764 mmHg 92%
    21:00 +9°C° 0.1 mm 7 mps 765 mmHg 91%
    22:00 +9°C° 0 mm 7 mps 765 mmHg 91%
    23:00 +9°C° 0 mm 7 mps 765 mmHg 90%
    Show more